Kuiper-00065

operational
NORAD ID: 64525 Int'l Des: 2025-134 Owner: KUIP Country: US Constellation: kuiper
LEOCIRCULAR

About Kuiper-00065

Description loading...

Live Position

Loading 3D Globe...

Upcoming Passes

Altitude History

Altitude vs Time

uPlot chart will show altitude changes over time

Two-Line Element Set

1 64525U 25134AB 25312.56576509 .00006822 00000-0 92115-3 0 9992
2 64525 51.9028 55.8154 0010766 242.6665 117.3202 14.79994176 22027
Epoch: Nov 8, 2025 • Age: 42 hours

Current Status

Altitude 639.9 km
Velocity 7.54 km/s
Sub-Earth Point -51.85°S, 152.17°E
Launch Date Jun 23, 2025
Age 0.3 years
Type internet

Technical Details

Classification Payload
Mass 490.00 kg
Dry Mass 490.00 kg
Total Mass 490.00 kg
Length 1.80 m
Diameter 0.70 m
Span 5.00 m
Shape Box + 2 pan
Manufacturer KUIP
Bus Type Kuiper
Phase Status In Orbit
Owner/State KUIP/US

Large Constellations

Loading constellations...